Weather History for Learmonth, WE

Change the Weather History Date:

Wednesday, December 19, 2012

  Actual Average Record
Temperature  
Mean Temperature 92 °F -  
Max Temperature 109 °F 96 °F 109 °F (2002)
Min Temperature 75 °F 70 °F 64 °F (2003)
Cooling Degree Days 27    
Growing Degree Days 42 (Base 50)    
Moisture  
Dew Point 54 °F    
Average Humidity 34    
Maximum Humidity 65    
Minimum Humidity 6    
Precipitation  
Precipitation 0.00 in 0.02 in - ()
Sea Level Pressure  
Sea Level Pressure 29.67 in    
Wind  
Wind Speed 15 mph ()    
Max Wind Speed 26 mph    
Max Gust Speed 37 mph    
Visibility 6.7 miles    
Events      
Averages and records for this station are not official NWS values.
T = Trace of Precipitation, MM = Missing Value Source: Averaged Metar Reports

Daily Weather History Graph

Daily Weather History Graph

Search for Another Location

Airport:

Trip Planner

Search our weather history database for the weather conditions in past years. The results will help you decide how hot, cold, wet, or windy it might be!

Date:

Astronomy

Dec. 19, 2012 Rise Set
Actual Time 5:35 AM WST 7:05 PM WST
Civil Twilight 5:10 AM WST 7:30 PM WST
Nautical Twilight 4:40 AM WST 8:00 PM WST
Astronomical Twilight 4:09 AM WST 8:31 PM WST
Moon 11:26 AM WST (12/19) 11:48 PM WST (12/19)
Length of Visible Light 14h 20m
Length of Day
13h 29m
Waxing Crescent, 39% of the Moon is Illuminated
Dec 19
Waxing Crescent
Dec 20
First Quarter
Dec 28
Full
Jan 5
Last Quarter
Jan 12
New

Hourly Weather History & Observations

Time (WST) Temp. Heat Index Dew Point Humidity Pressure Visibility Wind Dir Wind Speed Gust Speed Precip Events Conditions
12:00 AM 77 °F - 63 °F 53% 29.73 in - SSW 15.0 mph - -  
12:00 AM 77.0 °F - 62.6 °F 61% 29.71 in 6.2 mi SSW 15.0 mph - N/A   Unknown
12:30 AM 77.0 °F - 62.6 °F 61% 29.71 in 6.2 mi SSW 15.0 mph - N/A   Unknown
1:00 AM 77.0 °F - 62.6 °F 61% 29.71 in 6.2 mi SSW 15.0 mph - N/A   Unknown
1:30 AM 75.2 °F - 62.6 °F 65% 29.71 in 6.2 mi SSW 12.7 mph - N/A   Unknown
2:00 AM 76 °F - 61 °F 51% 29.72 in - SSW 13.8 mph - -  
2:00 AM 75.2 °F - 60.8 °F 61% 29.71 in 6.2 mi SSW 13.8 mph - N/A   Unknown
2:30 AM 75.2 °F - 60.8 °F 61% 29.71 in 6.2 mi SSW 16.1 mph - N/A   Unknown
3:00 AM 76 °F - 62 °F 52% 29.72 in - SSW 13.8 mph - -  
3:00 AM 75.2 °F - 62.6 °F 65% 29.71 in 6.2 mi SSW 13.8 mph - N/A   Scattered Clouds
3:30 AM 77.0 °F - 62.6 °F 61% 29.71 in 6.2 mi SSW 15.0 mph - N/A   Scattered Clouds
4:00 AM 77.0 °F - 60.8 °F 57% 29.71 in 6.2 mi SSW 12.7 mph - N/A   Unknown
4:30 AM 77.0 °F - 60.8 °F 57% 29.71 in 6.2 mi SSW 13.8 mph - N/A   Unknown
5:00 AM 76 °F - 62 °F 52% 29.72 in - SW 12.7 mph - -  
5:00 AM 77.0 °F - 62.6 °F 61% 29.71 in 6.2 mi SW 12.7 mph - N/A   Scattered Clouds
5:30 AM 75.2 °F - 60.8 °F 61% 29.71 in 6.2 mi SSW 13.8 mph - N/A   Scattered Clouds
6:00 AM 76 °F - 61 °F 49% 29.74 in 10 mi SSW 15.0 mph - -   Haze
6:00 AM 77.0 °F - 60.8 °F 57% 29.74 in - SSW 15.0 mph - N/A   Clear
6:30 AM 77.0 °F - 60.8 °F 57% 29.74 in - SSW 13.8 mph - N/A   Clear
7:00 AM 80.6 °F 81.5 °F 60.8 °F 51% 29.74 in - SSW 15.0 mph - N/A   Clear
7:30 AM 82.4 °F 82.5 °F 59.0 °F 45% 29.74 in - SSW 16.1 mph - N/A   Clear
8:00 AM 85 °F - 59 °F 31% 29.76 in - SSW 16.1 mph - -  
8:00 AM 84.2 °F 83.8 °F 59.0 °F 42% 29.74 in - SSW 16.1 mph - N/A   Clear
8:30 AM 87.8 °F 86.1 °F 55.4 °F 33% 29.74 in - SSW 15.0 mph - N/A   Clear
9:00 AM 93 °F - 50 °F 14% 29.75 in 12 mi South 13.8 mph - -   Partly Cloudy
9:00 AM 93.2 °F - 50.0 °F 23% 29.74 in - South 13.8 mph - N/A   Clear
9:30 AM 95.0 °F - 46.4 °F 19% 29.74 in - South 15.0 mph - N/A   Clear
10:00 AM 98.6 °F - 46.4 °F 17% 29.71 in - South 15.0 mph - N/A   Clear
10:30 AM 100.4 °F - 44.6 °F 15% 29.71 in - South 16.1 mph - N/A   Clear
11:00 AM 101 °F - 46 °F 8% 29.71 in - South 15.0 mph - -  
11:00 AM 102.2 °F - 46.4 °F 15% 29.71 in 6.2 mi South 15.0 mph - N/A   Partly Cloudy
11:30 AM 102.2 °F - 41.0 °F 12% 29.68 in 6.2 mi SE 18.4 mph - N/A   Partly Cloudy
12:00 PM 104 °F - 42 °F 6% 29.69 in 12 mi SSE 16.1 mph - -   Blowing Sand
12:00 PM 104.0 °F - 42.8 °F 12% 29.68 in 6.2 mi SSE 16.1 mph 28.8 mph N/A   Partly Cloudy
12:30 PM 104.0 °F - 41.0 °F 12% 29.68 in 6.2 mi SSE 16.1 mph 29.9 mph N/A   Partly Cloudy
1:00 PM 105.8 °F - 41.0 °F 11% 29.65 in 6.2 mi SE 16.1 mph - N/A   Partly Cloudy
1:30 PM 105.8 °F - 41.0 °F 11% 29.65 in - SSE 16.1 mph - N/A   Clear
2:00 PM 107 °F - 42 °F 6% 29.65 in - South 12.7 mph - -  
2:00 PM 107.6 °F - 42.8 °F 11% 29.62 in - South 12.7 mph - N/A   Clear
2:32 PM 105.8 °F - 50.0 °F 15% 29.62 in - South 18.4 mph 29.9 mph N/A   Clear
3:00 PM 107 °F - 49 °F 8% 29.63 in 11 mi SSW 17.3 mph - -   Smoke
3:00 PM 107.6 °F - 50.0 °F 15% 29.62 in - SSW 17.3 mph - N/A   Clear
3:30 PM 105.8 °F - 50.0 °F 15% 29.62 in 6.2 mi SSW 21.9 mph - N/A   Unknown
3:58 PM 104.0 °F - 46.4 °F 14% 29.59 in 6.2 mi SSW 24.2 mph 35.7 mph N/A   Unknown
4:00 PM 104.0 °F - 50.0 °F 16% 29.59 in 6.2 mi SSW 24.2 mph 35.7 mph N/A   Unknown
4:37 PM 104.0 °F - 50.0 °F 16% 29.59 in 6.2 mi SSW 24.2 mph 35.7 mph N/A   Unknown
5:00 PM 102 °F - 51 °F 11% 29.60 in - SSW 26.5 mph - -  
5:00 PM 102.2 °F - 51.8 °F 18% 29.59 in 6.2 mi SSW 26.5 mph - N/A   Unknown
5:30 PM 98.6 °F - 51.8 °F 21% 29.59 in 6.2 mi SSW 25.3 mph - N/A   Unknown
5:50 PM 98.6 °F 96.4 °F 53.6 °F 22% 29.59 in 6.2 mi SSW 24.2 mph 36.8 mph N/A   Unknown
6:00 PM 97 °F - 54 °F 15% 29.60 in - SSW 25.3 mph - -  
6:00 PM 96.8 °F 94.4 °F 53.6 °F 23% 29.59 in 6.2 mi SSW 25.3 mph - N/A   Unknown
6:17 PM 95.0 °F 93.7 °F 57.2 °F 28% 29.59 in 6.2 mi SW 21.9 mph 33.4 mph N/A   Unknown
6:30 PM 93.2 °F 91.9 °F 57.2 °F 30% 29.62 in 6.2 mi SSW 23.0 mph - N/A   Unknown
6:50 PM 91.4 °F 89.4 °F 55.4 °F 29% 29.62 in 6.2 mi SW 23.0 mph 34.5 mph N/A   Unknown
7:00 PM 91.4 °F 89.9 °F 57.2 °F 31% 29.62 in 6.2 mi SW 21.9 mph 33.4 mph N/A   Unknown
7:30 PM 87.8 °F 86.1 °F 55.4 °F 33% 29.62 in 6.2 mi SW 21.9 mph - N/A   Unknown
8:00 PM 87 °F - 55 °F 23% 29.65 in - SW 19.6 mph - -  
8:00 PM 86.0 °F 84.5 °F 55.4 °F 35% 29.65 in 6.2 mi SW 19.6 mph - N/A   Unknown
8:30 PM 86.0 °F 84.5 °F 55.4 °F 35% 29.65 in 6.2 mi SW 19.6 mph - N/A   Unknown
9:00 PM 85 °F - 55 °F 25% 29.66 in - SW 19.6 mph - -  
9:00 PM 84.2 °F 83.0 °F 55.4 °F 37% 29.65 in 6.2 mi SW 19.6 mph - N/A   Unknown
9:12 PM 84.2 °F 83.0 °F 55.4 °F 37% 29.65 in 6.2 mi SSW 19.6 mph 31.1 mph N/A   Unknown
9:30 PM 84.2 °F 82.8 °F 53.6 °F 35% 29.65 in 6.2 mi SSW 21.9 mph - N/A   Unknown
10:00 PM 84.2 °F 83.0 °F 55.4 °F 37% 29.65 in 6.2 mi SSW 17.3 mph - N/A   Unknown
10:30 PM 82.4 °F 82.5 °F 59.0 °F 45% 29.68 in 6.2 mi SSW 17.3 mph - N/A   Unknown
11:00 PM 80 °F - 62 °F 44% 29.68 in - SSW 17.3 mph - -  
11:00 PM 80.6 °F 81.8 °F 62.6 °F 54% 29.68 in 6.2 mi SSW 17.3 mph - N/A   Unknown
11:30 PM 80.6 °F 81.8 °F 62.6 °F 54% 29.65 in 6.2 mi SSW 17.3 mph - N/A   Unknown